AUA661 LOWW-UKBB

Flight info

Callsign AUA661
Flight time 1h 59m
Altitude 35000
Route KOXER Z649 XENAK M985 NIT DCT MALBE/K0843F350 M991 IVF M986 SLV
Aircraft A321/M-SDE3FGHIRWY/LB1

Departure

Time 2026-04-23 12:03
Airport Vienna International Airport (LOWW)

Arrival

Time 2026-04-23 14:03
Airport Boryspil International Airport (UKBB)
Time Latitude Longitude Altitude Speed Heading
2026-04-23 11:30 48.11830 16.56988 619 ft 0 kts 206°
2026-04-23 11:55 48.11850 16.57002 625 ft 4 kts 200°
2026-04-23 11:55 48.11876 16.57012 623 ft 4 kts 181°
2026-04-23 11:55 48.11898 16.57005 625 ft 4 kts 128°
2026-04-23 11:56 48.11902 16.56998 625 ft 0 kts 116°
2026-04-23 11:58 48.11899 16.57008 625 ft 4 kts 116°
2026-04-23 11:58 48.11875 16.57080 614 ft 12 kts 116°
2026-04-23 11:58 48.11849 16.57214 609 ft 15 kts 99°
2026-04-23 11:59 48.11804 16.57340 617 ft 13 kts 142°
2026-04-23 11:59 48.11723 16.57381 621 ft 12 kts 164°
2026-04-23 11:59 48.11649 16.57412 617 ft 11 kts 164°
2026-04-23 11:59 48.11578 16.57443 616 ft 10 kts 164°
2026-04-23 12:00 48.11495 16.57476 617 ft 14 kts 177°
2026-04-23 12:00 48.11395 16.57390 618 ft 18 kts 206°
2026-04-23 12:00 48.11289 16.57314 622 ft 16 kts 206°
2026-04-23 12:00 48.11195 16.57245 609 ft 14 kts 205°
2026-04-23 12:01 48.11162 16.57222 624 ft 0 kts 205°
2026-04-23 12:01 48.11153 16.57215 621 ft 4 kts 205°
2026-04-23 12:02 48.11098 16.57176 609 ft 13 kts 206°
2026-04-23 12:02 48.11054 16.57110 612 ft 7 kts 280°
2026-04-23 12:02 48.11075 16.57043 615 ft 10 kts 295°
2026-04-23 12:02 48.11169 16.56753 615 ft 63 kts 296°
2026-04-23 12:03 48.11448 16.55897 618 ft 118 kts 296°
2026-04-23 12:03 48.11869 16.54589 715 ft 150 kts 297°
2026-04-23 12:03 48.12160 16.53145 1307 ft 152 kts 266°
2026-04-23 12:03 48.11661 16.51692 1918 ft 172 kts 225°
2026-04-23 12:04 48.10544 16.50782 2235 ft 192 kts 217°
2026-04-23 12:04 48.09324 16.49790 2516 ft 207 kts 218°
2026-04-23 12:04 48.08021 16.48734 2868 ft 220 kts 211°
2026-04-23 12:04 48.06454 16.48264 3198 ft 243 kts 184°
2026-04-23 12:05 48.04700 16.48661 3395 ft 267 kts 173°
2026-04-23 12:05 48.02772 16.49162 3551 ft 295 kts 174°
2026-04-23 12:05 48.00712 16.49729 4174 ft 300 kts 167°
2026-04-23 12:05 47.98912 16.51229 5041 ft 300 kts 135°
2026-04-23 12:06 47.97773 16.53728 5778 ft 293 kts 107°
2026-04-23 12:06 47.97325 16.56624 6561 ft 282 kts 85°
2026-04-23 12:06 47.98310 16.61945 7967 ft 261 kts 48°
2026-04-23 12:07 47.99359 16.64176 8600 ft 266 kts 53°
2026-04-23 12:07 48.00229 16.66642 9285 ft 270 kts 58°
2026-04-23 12:07 48.01015 16.69207 9956 ft 272 kts 60°
2026-04-23 12:07 48.01803 16.71828 10297 ft 285 kts 59°
2026-04-23 12:08 48.02652 16.74566 10420 ft 303 kts 59°
2026-04-23 12:08 48.03589 16.77489 10549 ft 321 kts 59°
2026-04-23 12:08 48.04597 16.80548 10671 ft 337 kts 58°
2026-04-23 12:08 48.05668 16.83752 10794 ft 352 kts 59°
2026-04-23 12:09 48.06792 16.87090 10963 ft 365 kts 59°
2026-04-23 12:09 48.07939 16.90504 11338 ft 369 kts 59°
2026-04-23 12:09 48.09094 16.93944 11801 ft 371 kts 59°
2026-04-23 12:09 48.10257 16.97405 12268 ft 373 kts 59°
2026-04-23 12:10 48.11403 17.00896 12732 ft 376 kts 62°
2026-04-23 12:10 48.12229 17.04648 13178 ft 384 kts 72°
2026-04-23 12:10 48.12587 17.08640 13614 ft 391 kts 83°
2026-04-23 12:10 48.12512 17.12688 14011 ft 396 kts 88°
2026-04-23 12:11 48.12370 17.16815 14374 ft 398 kts 88°
2026-04-23 12:11 48.12229 17.20957 14726 ft 399 kts 88°
2026-04-23 12:11 48.12092 17.25115 15077 ft 400 kts 88°
2026-04-23 12:11 48.12197 17.29256 15419 ft 397 kts 78°
2026-04-23 12:12 48.12768 17.33277 15752 ft 394 kts 69°
2026-04-23 12:12 48.13689 17.37133 16076 ft 394 kts 66°
2026-04-23 12:12 48.14633 17.40984 16421 ft 396 kts 66°
2026-04-23 12:12 48.15576 17.44876 16757 ft 398 kts 66°
2026-04-23 12:13 48.16514 17.48772 17113 ft 400 kts 66°
2026-04-23 12:13 48.17443 17.52646 17452 ft 401 kts 66°
2026-04-23 12:13 48.18383 17.56596 17798 ft 404 kts 67°
2026-04-23 12:13 48.19298 17.60590 18151 ft 406 kts 68°
2026-04-23 12:14 48.20193 17.64620 18493 ft 409 kts 68°
2026-04-23 12:14 48.21080 17.68679 18800 ft 411 kts 68°
2026-04-23 12:14 48.21967 17.72760 19116 ft 413 kts 68°
2026-04-23 12:14 48.22861 17.76859 19437 ft 414 kts 68°
2026-04-23 12:15 48.23761 17.80974 19760 ft 416 kts 68°
2026-04-23 12:15 48.24669 17.85101 20078 ft 418 kts 68°
2026-04-23 12:15 48.25572 17.89189 20392 ft 419 kts 68°
2026-04-23 12:15 48.26492 17.93348 20690 ft 421 kts 68°
2026-04-23 12:16 48.27411 17.97529 20981 ft 423 kts 68°
2026-04-23 12:16 48.28331 18.01730 21271 ft 425 kts 69°
2026-04-23 12:16 48.29194 18.05983 21550 ft 428 kts 73°
2026-04-23 12:16 48.29828 18.10371 21837 ft 431 kts 75°
2026-04-23 12:17 48.30453 18.14772 22111 ft 433 kts 75°
2026-04-23 12:17 48.31083 18.19216 22390 ft 435 kts 75°
2026-04-23 12:17 48.31711 18.23665 22674 ft 437 kts 75°
2026-04-23 12:17 48.32335 18.28083 22950 ft 439 kts 75°
2026-04-23 12:18 48.32971 18.32582 23234 ft 441 kts 75°
2026-04-23 12:18 48.33608 18.37101 23541 ft 443 kts 75°
2026-04-23 12:18 48.34246 18.41635 23788 ft 444 kts 75°
2026-04-23 12:18 48.34885 18.46188 24010 ft 446 kts 75°
2026-04-23 12:19 48.35525 18.50755 24231 ft 447 kts 75°
2026-04-23 12:19 48.36164 18.55338 24438 ft 449 kts 75°
2026-04-23 12:19 48.36803 18.59935 24622 ft 450 kts 75°
2026-04-23 12:19 48.37438 18.64536 24823 ft 451 kts 75°
2026-04-23 12:20 48.38064 18.69099 25002 ft 452 kts 75°
2026-04-23 12:20 48.38698 18.73736 25190 ft 453 kts 75°
2026-04-23 12:20 48.39331 18.78370 25432 ft 452 kts 75°
2026-04-23 12:20 48.39961 18.82998 25660 ft 451 kts 75°
2026-04-23 12:21 48.40589 18.87620 25922 ft 450 kts 75°
2026-04-23 12:21 48.41214 18.92242 26135 ft 451 kts 75°
2026-04-23 12:21 48.41839 18.96866 26335 ft 450 kts 75°
2026-04-23 12:21 48.42461 19.01486 26566 ft 450 kts 75°
2026-04-23 12:22 48.43082 19.06104 26797 ft 450 kts 75°
2026-04-23 12:22 48.43690 19.10657 27033 ft 449 kts 75°
2026-04-23 12:22 48.44304 19.15266 27277 ft 448 kts 75°
2026-04-23 12:22 48.44913 19.19857 27493 ft 448 kts 75°
2026-04-23 12:23 48.45524 19.24453 27742 ft 447 kts 75°
2026-04-23 12:23 48.46132 19.29042 27982 ft 446 kts 75°
2026-04-23 12:23 48.46737 19.33626 28226 ft 446 kts 75°
2026-04-23 12:23 48.47338 19.38200 28489 ft 444 kts 76°
2026-04-23 12:24 48.47936 19.42759 28752 ft 443 kts 76°
2026-04-23 12:24 48.48523 19.47248 28966 ft 442 kts 76°
2026-04-23 12:24 48.49114 19.51791 29211 ft 441 kts 76°
2026-04-23 12:24 48.49700 19.56328 29415 ft 441 kts 76°
2026-04-23 12:25 48.50281 19.60862 29638 ft 440 kts 76°
2026-04-23 12:25 48.50858 19.65383 29820 ft 440 kts 76°
2026-04-23 12:25 48.51438 19.69931 29992 ft 440 kts 76°
2026-04-23 12:25 48.52016 19.74455 30153 ft 440 kts 76°
2026-04-23 12:26 48.52596 19.78989 30286 ft 440 kts 76°
2026-04-23 12:26 48.53167 19.83462 30465 ft 440 kts 76°
2026-04-23 12:26 48.53744 19.87988 30679 ft 439 kts 76°
2026-04-23 12:26 48.54317 19.92508 30868 ft 438 kts 76°
2026-04-23 12:27 48.54886 19.97025 31051 ft 438 kts 76°
2026-04-23 12:27 48.55449 20.01538 31237 ft 437 kts 76°
2026-04-23 12:27 48.56008 20.06048 31410 ft 437 kts 76°
2026-04-23 12:27 48.56563 20.10544 31597 ft 436 kts 76°
2026-04-23 12:28 48.57120 20.15045 31774 ft 436 kts 76°
2026-04-23 12:28 48.57668 20.19484 31939 ft 436 kts 76°
2026-04-23 12:28 48.58223 20.23990 32071 ft 437 kts 76°
2026-04-23 12:28 48.58777 20.28498 32236 ft 436 kts 76°
2026-04-23 12:29 48.59332 20.33002 32403 ft 436 kts 76°
2026-04-23 12:29 48.59887 20.37503 32588 ft 436 kts 76°
2026-04-23 12:29 48.60438 20.42009 32726 ft 436 kts 76°
2026-04-23 12:29 48.60983 20.46520 32898 ft 436 kts 76°
2026-04-23 12:30 48.62056 20.55492 32962 ft 436 kts 76°
2026-04-23 12:30 48.63136 20.64507 32961 ft 436 kts 76°
2026-04-23 12:31 48.64212 20.73537 32959 ft 436 kts 76°
2026-04-23 12:31 48.65278 20.82577 32965 ft 437 kts 76°
2026-04-23 12:32 48.66336 20.91622 32985 ft 437 kts 76°
2026-04-23 12:32 48.67382 21.00611 32985 ft 437 kts 76°
2026-04-23 12:33 48.68428 21.09653 32979 ft 437 kts 76°
2026-04-23 12:33 48.69464 21.18717 32970 ft 437 kts 76°
2026-04-23 12:34 48.70495 21.27803 32958 ft 438 kts 76°
2026-04-23 12:34 48.71530 21.36899 32964 ft 438 kts 76°
2026-04-23 12:35 48.72549 21.45945 32981 ft 439 kts 75°
2026-04-23 12:35 48.73563 21.55061 32974 ft 439 kts 76°
2026-04-23 12:36 48.74571 21.64179 32957 ft 439 kts 76°
2026-04-23 12:36 48.75569 21.73293 32955 ft 439 kts 76°
2026-04-23 12:37 48.76550 21.82364 32943 ft 439 kts 76°
2026-04-23 12:37 48.77536 21.91502 32949 ft 440 kts 75°
2026-04-23 12:38 48.78527 22.00655 32933 ft 440 kts 75°
2026-04-23 12:38 48.79507 22.09816 32931 ft 441 kts 76°
2026-04-23 12:39 48.80467 22.18942 32928 ft 441 kts 76°
2026-04-23 12:39 48.81430 22.28137 32932 ft 441 kts 76°
2026-04-23 12:40 48.82360 22.37353 32933 ft 444 kts 79°
2026-04-23 12:40 48.82715 22.46745 32952 ft 446 kts 81°
2026-04-23 12:41 48.83046 22.56142 32941 ft 446 kts 81°
2026-04-23 12:41 48.83366 22.65475 32935 ft 446 kts 81°
2026-04-23 12:42 48.83683 22.74882 32930 ft 446 kts 81°
2026-04-23 12:42 48.83990 22.84286 32925 ft 446 kts 81°
2026-04-23 12:43 48.84283 22.93698 32953 ft 446 kts 81°
2026-04-23 12:43 48.84572 23.03049 32937 ft 446 kts 81°
2026-04-23 12:44 48.84854 23.12451 32928 ft 446 kts 81°
2026-04-23 12:44 48.85128 23.21867 32926 ft 447 kts 81°
2026-04-23 12:45 48.85391 23.31290 32920 ft 447 kts 81°
2026-04-23 12:45 48.85655 23.40710 32946 ft 446 kts 81°
2026-04-23 12:46 48.85907 23.50063 32934 ft 446 kts 81°
2026-04-23 12:46 48.86146 23.59481 32921 ft 446 kts 81°
2026-04-23 12:47 48.86379 23.68887 32929 ft 446 kts 81°
2026-04-23 12:47 48.86614 23.78312 32913 ft 447 kts 81°
2026-04-23 12:48 48.86836 23.87742 32940 ft 447 kts 81°
2026-04-23 12:48 48.87046 23.97111 32921 ft 447 kts 81°
2026-04-23 12:49 48.87253 24.06537 32905 ft 446 kts 81°
2026-04-23 12:49 48.87449 24.15963 32886 ft 446 kts 81°
2026-04-23 12:50 48.87642 24.25388 32887 ft 446 kts 81°
2026-04-23 12:50 48.87828 24.34742 32883 ft 446 kts 81°
2026-04-23 12:51 48.88000 24.44173 32904 ft 447 kts 81°
2026-04-23 12:51 48.88164 24.53606 32888 ft 446 kts 81°
2026-04-23 12:52 48.88327 24.63037 32873 ft 446 kts 80°
2026-04-23 12:52 48.89395 24.72109 32878 ft 429 kts 63°
2026-04-23 12:53 48.91724 24.80285 32860 ft 424 kts 58°
2026-04-23 12:53 48.94142 24.88480 32851 ft 425 kts 59°
2026-04-23 12:54 48.96540 24.96704 32879 ft 425 kts 59°
2026-04-23 12:54 48.98919 25.04876 32862 ft 425 kts 59°
2026-04-23 12:55 49.01313 25.13100 32874 ft 425 kts 58°
2026-04-23 12:55 49.03702 25.21335 32852 ft 425 kts 58°
2026-04-23 12:56 49.06088 25.29566 32844 ft 425 kts 58°
2026-04-23 12:56 49.08468 25.37818 32829 ft 425 kts 58°
2026-04-23 12:57 49.10824 25.46029 32827 ft 425 kts 59°
2026-04-23 12:57 49.13189 25.54305 32820 ft 425 kts 59°
2026-04-23 12:58 49.15557 25.62584 32835 ft 425 kts 58°
2026-04-23 12:58 49.17923 25.70850 32818 ft 425 kts 58°
2026-04-23 12:59 49.20260 25.79065 32815 ft 425 kts 58°
2026-04-23 12:59 49.22616 25.87353 32799 ft 425 kts 58°
2026-04-23 13:00 49.24963 25.95658 32797 ft 425 kts 58°
2026-04-23 13:00 49.27303 26.03979 32799 ft 425 kts 58°
2026-04-23 13:01 49.29630 26.12252 32801 ft 426 kts 58°
2026-04-23 13:01 49.31975 26.20582 32786 ft 426 kts 58°
2026-04-23 13:02 49.34322 26.28936 32810 ft 427 kts 58°
2026-04-23 13:02 49.36662 26.37310 32802 ft 427 kts 58°
2026-04-23 13:03 49.38991 26.45701 32781 ft 427 kts 58°
2026-04-23 13:03 49.41288 26.54057 32817 ft 428 kts 58°
2026-04-23 13:04 49.43586 26.62488 32782 ft 428 kts 58°
2026-04-23 13:04 49.45880 26.70912 32775 ft 428 kts 58°
2026-04-23 13:05 49.48179 26.79356 32766 ft 428 kts 58°
2026-04-23 13:05 49.50470 26.87788 32754 ft 428 kts 58°
2026-04-23 13:06 49.53866 27.00425 32829 ft 428 kts 57°
2026-04-23 13:07 49.56132 27.08901 32748 ft 427 kts 57°
2026-04-23 13:07 49.58396 27.17366 32742 ft 427 kts 57°
2026-04-23 13:08 49.60654 27.25850 32726 ft 428 kts 57°
2026-04-23 13:08 49.62898 27.34289 32727 ft 428 kts 57°
2026-04-23 13:09 49.65150 27.42802 32724 ft 429 kts 57°
2026-04-23 13:09 49.67393 27.51329 32761 ft 429 kts 57°
2026-04-23 13:10 49.69628 27.59874 32748 ft 429 kts 57°
2026-04-23 13:10 49.71859 27.68416 32743 ft 429 kts 57°
2026-04-23 13:11 49.74075 27.76915 32724 ft 429 kts 57°
2026-04-23 13:11 49.76296 27.85483 32718 ft 429 kts 57°
2026-04-23 13:12 49.78509 27.94066 32710 ft 429 kts 58°
2026-04-23 13:12 49.80337 28.01201 32748 ft 429 kts 57°
2026-04-23 13:13 49.82883 28.11175 32738 ft 428 kts 57°
2026-04-23 13:13 49.85068 28.19753 32729 ft 428 kts 57°
2026-04-23 13:14 49.86883 28.26884 32721 ft 428 kts 57°
2026-04-23 13:14 49.89055 28.35469 32751 ft 428 kts 58°
2026-04-23 13:15 49.91569 28.45444 32707 ft 427 kts 58°
2026-04-23 13:15 49.93359 28.52574 32701 ft 427 kts 58°
2026-04-23 13:16 49.95506 28.61174 32697 ft 427 kts 58°
2026-04-23 13:16 49.97647 28.69785 32685 ft 427 kts 58°
2026-04-23 13:17 49.99782 28.78406 32685 ft 427 kts 58°
2026-04-23 13:17 50.01913 28.87033 32685 ft 427 kts 58°
2026-04-23 13:18 50.04022 28.95603 32722 ft 427 kts 58°
2026-04-23 13:18 50.06118 29.04235 32703 ft 426 kts 58°
2026-04-23 13:19 50.08197 29.12884 32696 ft 427 kts 58°
2026-04-23 13:19 50.10271 29.21546 32659 ft 427 kts 59°
2026-04-23 13:20 50.12324 29.30171 32660 ft 428 kts 59°
2026-04-23 13:20 50.14389 29.38858 32664 ft 428 kts 59°
2026-04-23 13:21 50.16458 29.47565 32701 ft 428 kts 59°
2026-04-23 13:21 50.18524 29.56289 32674 ft 427 kts 57°
2026-04-23 13:22 50.21006 29.64564 31893 ft 419 kts 53°
2026-04-23 13:22 50.22251 29.68616 31122 ft 419 kts 53°
2026-04-23 13:22 50.23508 29.72714 30371 ft 417 kts 52°
2026-04-23 13:22 50.24757 29.76797 29617 ft 416 kts 52°
2026-04-23 13:23 50.25999 29.80866 28716 ft 414 kts 52°
2026-04-23 13:23 50.27241 29.84941 27762 ft 417 kts 52°
2026-04-23 13:23 50.28492 29.89040 26734 ft 419 kts 52°
2026-04-23 13:23 50.29745 29.93149 25782 ft 420 kts 52°
2026-04-23 13:24 50.31001 29.97285 24782 ft 422 kts 52°
2026-04-23 13:24 50.32253 30.01438 23803 ft 422 kts 53°
2026-04-23 13:24 50.33485 30.05545 22823 ft 422 kts 53°
2026-04-23 13:24 50.34721 30.09677 21978 ft 416 kts 53°
2026-04-23 13:25 50.35943 30.13759 21148 ft 412 kts 53°
2026-04-23 13:25 50.37154 30.17793 20304 ft 409 kts 54°
2026-04-23 13:25 50.38197 30.21982 19464 ft 417 kts 62°
2026-04-23 13:25 50.38826 30.26451 18669 ft 426 kts 72°
2026-04-23 13:26 50.38995 30.31144 17906 ft 436 kts 82°
2026-04-23 13:26 50.38676 30.35893 17068 ft 444 kts 92°
2026-04-23 13:26 50.37855 30.40584 16268 ft 449 kts 102°
2026-04-23 13:26 50.36828 30.45113 15489 ft 445 kts 102°
2026-04-23 13:27 50.35800 30.49653 14793 ft 439 kts 104°
2026-04-23 13:27 50.34789 30.54137 14070 ft 434 kts 104°
2026-04-23 13:27 50.33803 30.58487 13911 ft 414 kts 104°
2026-04-23 13:27 50.32837 30.62628 13781 ft 398 kts 108°
2026-04-23 13:28 50.31520 30.66369 13651 ft 389 kts 121°
2026-04-23 13:28 50.29756 30.69493 13530 ft 379 kts 135°
2026-04-23 13:28 50.27663 30.71871 13389 ft 368 kts 149°
2026-04-23 13:28 50.25369 30.73463 13259 ft 355 kts 163°
2026-04-23 13:29 50.23013 30.74322 13118 ft 341 kts 171°
2026-04-23 13:29 50.20748 30.74984 12973 ft 329 kts 174°
2026-04-23 13:29 50.18514 30.75152 12829 ft 314 kts 186°
2026-04-23 13:29 50.16368 30.74995 12681 ft 304 kts 186°
2026-04-23 13:30 50.14277 30.74850 12461 ft 297 kts 187°
2026-04-23 13:30 50.12234 30.74714 12174 ft 292 kts 187°
2026-04-23 13:30 50.10218 30.74576 11827 ft 289 kts 187°
2026-04-23 13:30 50.08226 30.74434 11486 ft 286 kts 187°
2026-04-23 13:31 50.06244 30.74291 11138 ft 283 kts 187°
2026-04-23 13:31 50.04289 30.74149 10783 ft 281 kts 187°
2026-04-23 13:31 50.02373 30.74011 10446 ft 278 kts 187°
2026-04-23 13:31 50.00446 30.73874 10106 ft 276 kts 187°
2026-04-23 13:32 49.98537 30.73738 9766 ft 274 kts 188°
2026-04-23 13:32 49.96643 30.73605 9409 ft 271 kts 188°
2026-04-23 13:32 49.94761 30.73474 9021 ft 270 kts 187°
2026-04-23 13:32 49.92887 30.73344 8738 ft 270 kts 187°
2026-04-23 13:33 49.91009 30.73211 8462 ft 270 kts 186°
2026-04-23 13:33 49.89166 30.73615 8196 ft 276 kts 159°
2026-04-23 13:33 49.87567 30.75280 7924 ft 275 kts 129°
2026-04-23 13:33 49.86640 30.77748 7664 ft 267 kts 101°
2026-04-23 13:34 49.86450 30.80532 7368 ft 255 kts 75°
2026-04-23 13:34 49.86950 30.83062 7054 ft 239 kts 51°
2026-04-23 13:34 49.87998 30.84934 6747 ft 224 kts 28°
2026-04-23 13:34 49.89355 30.85947 6441 ft 212 kts
2026-04-23 13:35 49.90797 30.86171 6140 ft 207 kts 358°
2026-04-23 13:35 49.92219 30.86268 5855 ft 206 kts 358°
2026-04-23 13:35 49.93692 30.86370 5584 ft 211 kts 358°
2026-04-23 13:35 49.95142 30.86472 5327 ft 212 kts 359°
2026-04-23 13:36 49.96609 30.86580 5063 ft 210 kts 359°
2026-04-23 13:36 49.98067 30.86687 4852 ft 210 kts 359°
2026-04-23 13:36 49.99522 30.86793 4644 ft 209 kts 359°
2026-04-23 13:36 50.00970 30.86898 4451 ft 208 kts 359°
2026-04-23 13:37 50.02411 30.87002 4238 ft 207 kts 360°
2026-04-23 13:37 50.03847 30.87105 4025 ft 207 kts 360°
2026-04-23 13:37 50.05287 30.87207 3813 ft 207 kts 360°
2026-04-23 13:37 50.06700 30.87380 3602 ft 208 kts
2026-04-23 13:38 50.08120 30.87742 3400 ft 206 kts
2026-04-23 13:38 50.09539 30.88091 3190 ft 206 kts
2026-04-23 13:38 50.10943 30.88501 3039 ft 206 kts
2026-04-23 13:38 50.12352 30.88840 2987 ft 204 kts
2026-04-23 13:39 50.13772 30.89006 2990 ft 205 kts
2026-04-23 13:39 50.15183 30.89120 3004 ft 196 kts
2026-04-23 13:39 50.16516 30.89219 2990 ft 188 kts 360°
2026-04-23 13:39 50.17814 30.89313 2992 ft 186 kts 360°
2026-04-23 13:40 50.19086 30.89405 2987 ft 185 kts 360°
2026-04-23 13:40 50.20348 30.89498 2865 ft 175 kts 360°
2026-04-23 13:40 50.21525 30.89585 2655 ft 164 kts 359°
2026-04-23 13:40 50.22641 30.89666 2442 ft 158 kts 359°
2026-04-23 13:41 50.23706 30.89744 2232 ft 146 kts 359°
2026-04-23 13:41 50.24688 30.89816 2046 ft 138 kts 359°
2026-04-23 13:41 50.25638 30.89885 1851 ft 134 kts 359°
2026-04-23 13:41 50.26566 30.89952 1685 ft 134 kts 358°
2026-04-23 13:42 50.27505 30.90020 1492 ft 136 kts 359°
2026-04-23 13:42 50.28435 30.90089 1293 ft 136 kts 359°
2026-04-23 13:42 50.29385 30.90161 1091 ft 140 kts 360°
2026-04-23 13:42 50.30346 30.90231 886 ft 139 kts 360°
2026-04-23 13:43 50.31298 30.90300 700 ft 140 kts
2026-04-23 13:43 50.32271 30.90372 502 ft 138 kts
2026-04-23 13:43 50.33194 30.90450 423 ft 123 kts 350°
2026-04-23 13:43 50.34065 30.90504 429 ft 147 kts
2026-04-23 13:44 50.35135 30.90621 1076 ft 155 kts 359°
2026-04-23 13:44 50.36217 30.90760 1824 ft 163 kts
2026-04-23 13:44 50.37347 30.91293 2007 ft 189 kts 27°
2026-04-23 13:44 50.38215 30.92989 2287 ft 216 kts 60°
2026-04-23 13:45 50.38320 30.95423 2746 ft 236 kts 94°
2026-04-23 13:45 50.37663 30.97857 2960 ft 254 kts 120°
2026-04-23 13:45 50.36296 30.99686 2968 ft 265 kts 154°
2026-04-23 13:45 50.34513 31.00317 2992 ft 264 kts 180°
2026-04-23 13:46 50.32680 31.00303 2988 ft 264 kts 184°
2026-04-23 13:46 50.30847 31.00197 2987 ft 263 kts 185°
2026-04-23 13:46 50.29043 31.00079 2987 ft 264 kts 185°
2026-04-23 13:46 50.27207 30.99956 2992 ft 263 kts 185°
2026-04-23 13:47 50.25388 30.99834 2989 ft 262 kts 185°
2026-04-23 13:47 50.23568 30.99711 2989 ft 262 kts 185°
2026-04-23 13:47 50.21746 30.99588 2985 ft 263 kts 185°
2026-04-23 13:47 50.19917 30.99464 2988 ft 263 kts 185°
2026-04-23 13:48 50.18095 30.99276 2993 ft 261 kts 195°
2026-04-23 13:48 50.16515 30.98102 2986 ft 248 kts 230°
2026-04-23 13:48 50.15601 30.95997 2994 ft 232 kts 261°
2026-04-23 13:48 50.15454 30.93618 3010 ft 209 kts 287°
2026-04-23 13:49 50.15937 30.91611 2992 ft 192 kts 309°
2026-04-23 13:49 50.16850 30.90176 2989 ft 184 kts 330°
2026-04-23 13:49 50.18026 30.89444 2990 ft 183 kts 350°
2026-04-23 13:49 50.19299 30.89417 2987 ft 184 kts
2026-04-23 13:50 50.20577 30.89513 2834 ft 183 kts
2026-04-23 13:50 50.21824 30.89606 2604 ft 174 kts
2026-04-23 13:50 50.23000 30.89693 2378 ft 164 kts 360°
2026-04-23 13:50 50.24066 30.89772 2179 ft 147 kts 360°
2026-04-23 13:51 50.25058 30.89844 1960 ft 139 kts 359°
2026-04-23 13:51 50.26015 30.89913 1778 ft 137 kts 359°
2026-04-23 13:51 50.26961 30.89981 1597 ft 136 kts 359°
2026-04-23 13:51 50.27905 30.90050 1413 ft 135 kts 359°
2026-04-23 13:52 50.28842 30.90118 1198 ft 135 kts
2026-04-23 13:52 50.29785 30.90187 1011 ft 137 kts
2026-04-23 13:52 50.30751 30.90257 816 ft 138 kts 359°
2026-04-23 13:52 50.31706 30.90327 635 ft 137 kts
2026-04-23 13:53 50.32632 30.90391 432 ft 134 kts
2026-04-23 13:53 50.33485 30.90457 428 ft 109 kts
2026-04-23 13:53 50.34334 30.90515 421 ft 150 kts
2026-04-23 13:53 50.35413 30.90567 1144 ft 153 kts 358°
2026-04-23 13:54 50.36506 30.90715 1850 ft 166 kts
2026-04-23 13:54 50.37507 30.91805 1989 ft 195 kts 47°
2026-04-23 13:54 50.37940 30.93966 2118 ft 227 kts 82°
2026-04-23 13:54 50.37504 30.96439 2419 ft 252 kts 117°
2026-04-23 13:55 50.36216 30.98424 2882 ft 265 kts 148°
2026-04-23 13:55 50.34495 30.99289 2990 ft 265 kts 176°
2026-04-23 13:55 50.32657 30.99414 2989 ft 264 kts 182°
2026-04-23 13:55 50.30824 30.99385 2989 ft 263 kts 185°
2026-04-23 13:56 50.28995 30.99279 2988 ft 263 kts 185°
2026-04-23 13:56 50.27166 30.99161 2994 ft 263 kts 185°
2026-04-23 13:56 50.25346 30.99040 2995 ft 261 kts 185°
2026-04-23 13:56 50.23529 30.98918 2987 ft 261 kts 185°
2026-04-23 13:57 50.21702 30.98795 2992 ft 264 kts 185°
2026-04-23 13:57 50.19889 30.98673 2994 ft 265 kts 185°
2026-04-23 13:57 50.18065 30.98420 2991 ft 261 kts 201°
2026-04-23 13:57 50.16590 30.97019 2996 ft 243 kts 238°
2026-04-23 13:58 50.15886 30.94765 3000 ft 226 kts 270°
2026-04-23 13:58 50.16008 30.92436 2999 ft 211 kts 297°
2026-04-23 13:58 50.16790 30.90588 2998 ft 202 kts 322°
2026-04-23 13:58 50.17976 30.89551 2999 ft 199 kts 346°
2026-04-23 13:59 50.19324 30.89418 3003 ft 190 kts
2026-04-23 13:59 50.20619 30.89518 2826 ft 184 kts
2026-04-23 13:59 50.21870 30.89610 2591 ft 181 kts
2026-04-23 13:59 50.23111 30.89701 2358 ft 172 kts
2026-04-23 14:00 50.23877 30.89758 2208 ft 161 kts 360°
2026-04-23 14:00 50.25282 30.89861 1932 ft 140 kts 359°
2026-04-23 14:00 50.26223 30.89930 1739 ft 132 kts 359°
2026-04-23 14:00 50.27128 30.89994 1540 ft 129 kts 358°
2026-04-23 14:01 50.28017 30.90060 1353 ft 127 kts 359°
2026-04-23 14:01 50.28897 30.90126 1183 ft 126 kts
2026-04-23 14:01 50.29783 30.90192 1007 ft 131 kts 359°
2026-04-23 14:01 50.30684 30.90256 822 ft 128 kts 360°
2026-04-23 14:02 50.31574 30.90310 640 ft 128 kts
2026-04-23 14:02 50.32482 30.90382 462 ft 130 kts
2026-04-23 14:02 50.33328 30.90444 423 ft 109 kts
2026-04-23 14:02 50.33902 30.90491 418 ft 56 kts
2026-04-23 14:03 50.34198 30.90501 414 ft 34 kts 354°
2026-04-23 14:03 50.34387 30.90413 415 ft 24 kts 334°
2026-04-23 14:03 50.34535 30.90293 413 ft 24 kts 332°
2026-04-23 14:03 50.34654 30.90220 416 ft 17 kts 357°
2026-04-23 14:04 50.34770 30.90229 410 ft 17 kts
2026-04-23 14:04 50.34886 30.90237 412 ft 17 kts
2026-04-23 14:04 50.35002 30.90246 411 ft 17 kts
2026-04-23 14:04 50.35118 30.90254 411 ft 17 kts
2026-04-23 14:05 50.35191 30.90160 415 ft 14 kts 277°
2026-04-23 14:05 50.35215 30.90035 412 ft 10 kts 297°
2026-04-23 14:05 50.35224 30.89937 410 ft 6 kts 272°
2026-04-23 14:05 50.35225 30.89918 415 ft 0 kts 272°
2026-04-23 14:06 50.35225 30.89903 415 ft 1 kts 272°
2026-04-23 14:06 50.35225 30.89893 414 ft 0 kts 272°